Location: Bothwell
(41.7170°N, 112.2589°W)
Time: 02:15:26
(UTC+00:00)

Tiros 1 - Pass Details

Date: 11 May 2026
Orbit: 618 x 649 km, 48.4° (Epoch: 6 June)

Event Time Altitude Azimuth Distance (km) Brightness Sun altitude
Rises 12:35:54 0° 295° (WNW) 2,893 10.1 3.0°
Reaches altitude 10° 12:38:19 10° 302° (WNW) 1,984 9.3 3.5°
Maximum altitude 12:42:40 44° 15° (NNE) 859 8.3 4.2°
Drops below altitude 10° 12:47:01 10° 88° (E) 1,977 11.4 5.0°
Sets 12:49:25 0° 95° (E) 2,882 11.9 5.4°
